Wetterdaten: Montag, 05.07.2010
Datum Zeit Temp. A. Feuchte A. Luftdruck Regen Wind Richtung Richtung Sonnenschein UV Solar Windben
05.07.2010 00:00 20,1 C 84 % 1018,0 hPa 0,0 mm 0,0 km/h (0 Bft) N 0 0 min 0 UV-I 0 W/m 0,0 km/h (0 Bft)
05.07.2010 00:10 19,9 C 85 % 1018,0 hPa 0,0 mm 0,0 km/h (0 Bft) N 0 0 min 0 UV-I 0 W/m 0,0 km/h (0 Bft)
05.07.2010 00:20 20,0 C 84 % 1018,0 hPa 0,0 mm 0,0 km/h (0 Bft) N 0 0 min 0 UV-I 0 W/m 0,0 km/h (0 Bft)
05.07.2010 00:30 19,9 C 85 % 1018,0 hPa 0,0 mm 0,0 km/h (0 Bft) N 0 0 min 0 UV-I 0 W/m 0,0 km/h (0 Bft)
05.07.2010 00:40 19,7 C 86 % 1018,0 hPa 0,0 mm 0,0 km/h (0 Bft) N 0 0 min 0 UV-I 0 W/m 0,0 km/h (0 Bft)
05.07.2010 00:50 19,6 C 86 % 1018,0 hPa 0,0 mm 0,0 km/h (0 Bft) N 0 0 min 0 UV-I 0 W/m 0,0 km/h (0 Bft)
05.07.2010 01:00 19,4 C 86 % 1018,0 hPa 0,0 mm 0,0 km/h (0 Bft) W-NW 292 0 min 0 UV-I 0 W/m 1,6 km/h (1 Bft)
05.07.2010 01:10 19,2 C 87 % 1018,0 hPa 0,0 mm 0,0 km/h (0 Bft) N 0 0 min 0 UV-I 0 W/m 0,0 km/h (0 Bft)
05.07.2010 01:20 19,0 C 88 % 1018,0 hPa 0,0 mm 0,0 km/h (0 Bft) N 0 0 min 0 UV-I 0 W/m 0,0 km/h (0 Bft)
05.07.2010 01:30 19,0 C 87 % 1018,0 hPa 0,0 mm 0,0 km/h (0 Bft) N 0 0 min 0 UV-I 0 W/m 0,0 km/h (0 Bft)
05.07.2010 01:40 18,8 C 88 % 1018,0 hPa 0,0 mm 0,0 km/h (0 Bft) N 0 0 min 0 UV-I 0 W/m 0,0 km/h (0 Bft)
05.07.2010 01:50 18,7 C 88 % 1018,0 hPa 0,0 mm 0,0 km/h (0 Bft) N 0 0 min 0 UV-I 0 W/m 0,0 km/h (0 Bft)
05.07.2010 02:00 18,8 C 87 % 1018,0 hPa 0,0 mm 0,0 km/h (0 Bft) W-NW 292 0 min 0 UV-I 0 W/m 3,2 km/h (1 Bft)
05.07.2010 02:10 18,7 C 86 % 1018,0 hPa 0,0 mm 0,0 km/h (0 Bft) W-NW 292 0 min 0 UV-I 0 W/m 3,2 km/h (1 Bft)
05.07.2010 02:20 18,7 C 84 % 1018,0 hPa 0,0 mm 0,0 km/h (0 Bft) W-NW 292 0 min 0 UV-I 0 W/m 3,2 km/h (1 Bft)
05.07.2010 02:30 18,5 C 84 % 1018,0 hPa 0,0 mm 0,0 km/h (0 Bft) W-NW 292 0 min 0 UV-I 0 W/m 3,2 km/h (1 Bft)
05.07.2010 02:40 18,3 C 84 % 1018,0 hPa 0,0 mm 1,6 km/h (1 Bft) W-NW 292 0 min 0 UV-I 0 W/m 4,8 km/h (1 Bft)
05.07.2010 02:50 18,2 C 84 % 1018,0 hPa 0,0 mm 1,6 km/h (1 Bft) W-NW 292 0 min 0 UV-I 0 W/m 4,8 km/h (1 Bft)
05.07.2010 03:00 18,1 C 85 % 1018,0 hPa 0,0 mm 1,6 km/h (1 Bft) W-NW 292 0 min 0 UV-I 0 W/m 8,0 km/h (2 Bft)
05.07.2010 03:10 18,1 C 85 % 1018,0 hPa 0,0 mm 1,6 km/h (1 Bft) W-NW 292 0 min 0 UV-I 0 W/m 8,0 km/h (2 Bft)
05.07.2010 03:20 17,9 C 86 % 1018,0 hPa 0,0 mm 0,0 km/h (0 Bft) W-NW 292 0 min 0 UV-I 0 W/m 4,8 km/h (1 Bft)
05.07.2010 03:30 17,9 C 86 % 1018,0 hPa 0,0 mm 0,0 km/h (0 Bft) W-NW 292 0 min 0 UV-I 0 W/m 6,4 km/h (2 Bft)
05.07.2010 03:40 17,9 C 86 % 1018,0 hPa 0,0 mm 0,0 km/h (0 Bft) N 0 0 min 0 UV-I 0 W/m 0,0 km/h (0 Bft)
05.07.2010 03:50 17,8 C 86 % 1018,0 hPa 0,0 mm 0,0 km/h (0 Bft) W-NW 292 0 min 0 UV-I 0 W/m 1,6 km/h (1 Bft)
05.07.2010 04:00 17,7 C 86 % 1018,0 hPa 0,0 mm 0,0 km/h (0 Bft) W-NW 292 0 min 0 UV-I 0 W/m 4,8 km/h (1 Bft)
05.07.2010 04:10 17,4 C 86 % 1018,0 hPa 0,0 mm 0,0 km/h (0 Bft) W-NW 292 0 min 0 UV-I 0 W/m 4,8 km/h (1 Bft)
05.07.2010 04:20 17,3 C 86 % 1018,0 hPa 0,0 mm 0,0 km/h (0 Bft) W-NW 292 0 min 0 UV-I 0 W/m 1,6 km/h (1 Bft)
05.07.2010 04:30 17,1 C 87 % 1018,0 hPa 0,0 mm 0,0 km/h (0 Bft) W-NW 292 0 min 0 UV-I 0 W/m 4,8 km/h (1 Bft)
05.07.2010 04:40 16,9 C 87 % 1018,0 hPa 0,0 mm 0,0 km/h (0 Bft) W-NW 292 0 min 0 UV-I 0 W/m 6,4 km/h (2 Bft)
05.07.2010 04:50 16,9 C 87 % 1018,0 hPa 0,0 mm 1,6 km/h (1 Bft) W-NW 292 0 min 0 UV-I 0 W/m 6,4 km/h (2 Bft)
05.07.2010 05:00 16,8 C 87 % 1018,0 hPa 0,0 mm 0,0 km/h (0 Bft) W-NW 292 0 min 0 UV-I 0 W/m 3,2 km/h (1 Bft)
05.07.2010 05:10 16,8 C 87 % 1018,0 hPa 0,0 mm 0,0 km/h (0 Bft) W-NW 292 0 min 0 UV-I 0 W/m 3,2 km/h (1 Bft)
05.07.2010 05:20 16,8 C 87 % 1018,0 hPa 0,0 mm 0,0 km/h (0 Bft) W-NW 292 0 min 0 UV-I 0 W/m 1,6 km/h (1 Bft)
05.07.2010 05:30 16,8 C 87 % 1018,0 hPa 0,0 mm 0,0 km/h (0 Bft) W-NW 292 0 min 0 UV-I 5 W/m 3,2 km/h (1 Bft)
05.07.2010 05:40 16,7 C 87 % 1018,0 hPa 0,0 mm 0,0 km/h (0 Bft) W-NW 292 0 min 0 UV-I 11 W/m 1,6 km/h (1 Bft)
05.07.2010 05:50 16,7 C 87 % 1018,0 hPa 0,0 mm 0,0 km/h (0 Bft) W-NW 292 0 min 0 UV-I 16 W/m 1,6 km/h (1 Bft)
05.07.2010 06:00 16,6 C 87 % 1018,0 hPa 0,0 mm 0,0 km/h (0 Bft) W-NW 292 0 min 0 UV-I 23 W/m 1,6 km/h (1 Bft)
05.07.2010 06:10 16,6 C 88 % 1018,0 hPa 0,0 mm 0,0 km/h (0 Bft) W-NW 292 0 min 0 UV-I 33 W/m 1,6 km/h (1 Bft)
05.07.2010 06:20 16,5 C 88 % 1018,0 hPa 0,0 mm 0,0 km/h (0 Bft) W-NW 292 0 min 0 UV-I 40 W/m 1,6 km/h (1 Bft)
05.07.2010 06:30 16,6 C 88 % 1018,0 hPa 0,0 mm 0,0 km/h (0 Bft) W-NW 292 0 min 0 UV-I 72 W/m 1,6 km/h (1 Bft)
05.07.2010 06:40 16,7 C 88 % 1018,0 hPa 0,0 mm 0,0 km/h (0 Bft) W-NW 292 0 min 0 UV-I 93 W/m 1,6 km/h (1 Bft)
05.07.2010 06:50 16,8 C 87 % 1018,0 hPa 0,0 mm 0,0 km/h (0 Bft) W-NW 292 0 min 1 UV-I 107 W/m 1,6 km/h (1 Bft)
05.07.2010 07:00 17,0 C 86 % 1018,0 hPa 0,0 mm 0,0 km/h (0 Bft) W-NW 292 10 min 1 UV-I 135 W/m 1,6 km/h (1 Bft)
05.07.2010 07:10 17,2 C 86 % 1018,0 hPa 0,0 mm 0,0 km/h (0 Bft) W-NW 292 10 min 1 UV-I 160 W/m 4,8 km/h (1 Bft)
05.07.2010 07:20 17,3 C 85 % 1018,0 hPa 0,0 mm 0,0 km/h (0 Bft) W-NW 292 10 min 1 UV-I 183 W/m 3,2 km/h (1 Bft)
05.07.2010 07:30 17,5 C 84 % 1018,0 hPa 0,0 mm 0,0 km/h (0 Bft) W-NW 292 10 min 1 UV-I 206 W/m 3,2 km/h (1 Bft)
05.07.2010 07:40 17,8 C 82 % 1018,0 hPa 0,0 mm 0,0 km/h (0 Bft) W-NW 292 10 min 1 UV-I 229 W/m 3,2 km/h (1 Bft)
05.07.2010 07:50 17,9 C 83 % 1018,0 hPa 0,0 mm 0,0 km/h (0 Bft) W-NW 292 10 min 1 UV-I 251 W/m 1,6 km/h (1 Bft)
05.07.2010 08:00 18,3 C 82 % 1018,0 hPa 0,0 mm 0,4 km/h (0 Bft) W-NW 296 10 min 1 UV-I 263 W/m 3,2 km/h (1 Bft)
05.07.2010 08:10 18,3 C 81 % 1018,0 hPa 0,0 mm 0,0 km/h (0 Bft) W-NW 292 10 min 1 UV-I 311 W/m 6,4 km/h (2 Bft)
05.07.2010 08:20 18,5 C 81 % 1018,0 hPa 0,0 mm 0,0 km/h (0 Bft) W-NW 292 10 min 2 UV-I 338 W/m 1,6 km/h (1 Bft)
05.07.2010 08:30 18,7 C 80 % 1018,0 hPa 0,0 mm 0,0 km/h (0 Bft) W-NW 292 10 min 2 UV-I 355 W/m 3,2 km/h (1 Bft)
05.07.2010 08:40 18,8 C 77 % 1018,0 hPa 0,0 mm 0,0 km/h (0 Bft) W-NW 292 10 min 2 UV-I 387 W/m 1,6 km/h (1 Bft)
05.07.2010 08:50 18,9 C 71 % 1018,0 hPa 0,0 mm 1,6 km/h (1 Bft) W-NW 292 10 min 2 UV-I 413 W/m 4,8 km/h (1 Bft)
05.07.2010 09:00 19,2 C 73 % 1018,0 hPa 0,0 mm 0,0 km/h (0 Bft) W-NW 292 10 min 2 UV-I 445 W/m 6,4 km/h (2 Bft)
05.07.2010 09:10 19,6 C 72 % 1018,0 hPa 0,0 mm 1,6 km/h (1 Bft) W-NW 292 10 min 3 UV-I 489 W/m 4,8 km/h (1 Bft)
05.07.2010 09:20 19,9 C 70 % 1018,0 hPa 0,0 mm 1,6 km/h (1 Bft) W-NW 292 10 min 3 UV-I 468 W/m 8,0 km/h (2 Bft)
05.07.2010 09:30 19,8 C 71 % 1018,0 hPa 0,0 mm 1,6 km/h (1 Bft) W-NW 292 10 min 3 UV-I 540 W/m 6,4 km/h (2 Bft)
05.07.2010 09:40 20,1 C 70 % 1018,0 hPa 0,0 mm 1,6 km/h (1 Bft) W-NW 292 10 min 3 UV-I 559 W/m 6,4 km/h (2 Bft)
05.07.2010 09:50 20,6 C 67 % 1018,0 hPa 0,0 mm 3,2 km/h (1 Bft) W-NW 292 10 min 4 UV-I 603 W/m 11,3 km/h (2 Bft)
05.07.2010 10:00 20,6 C 68 % 1018,0 hPa 0,0 mm 3,2 km/h (1 Bft) W-NW 292 10 min 4 UV-I 540 W/m 11,3 km/h (2 Bft)
05.07.2010 10:10 20,7 C 67 % 1018,0 hPa 0,0 mm 3,2 km/h (1 Bft) W 270 10 min 4 UV-I 700 W/m 11,3 km/h (2 Bft)
05.07.2010 10:20 21,3 C 64 % 1018,0 hPa 0,0 mm 3,2 km/h (1 Bft) W 270 10 min 5 UV-I 729 W/m 12,9 km/h (3 Bft)
05.07.2010 10:30 21,2 C 65 % 1018,0 hPa 0,0 mm 4,8 km/h (1 Bft) W 270 10 min 4 UV-I 589 W/m 14,5 km/h (3 Bft)
05.07.2010 10:40 21,4 C 65 % 1018,0 hPa 0,0 mm 4,8 km/h (1 Bft) W 270 10 min 5 UV-I 756 W/m 14,5 km/h (3 Bft)
05.07.2010 10:50 21,7 C 65 % 1018,0 hPa 0,0 mm 6,4 km/h (2 Bft) W-SW 247 10 min 6 UV-I 837 W/m 12,9 km/h (3 Bft)
05.07.2010 11:00 21,8 C 62 % 1018,0 hPa 0,0 mm 6,4 km/h (2 Bft) W 270 10 min 6 UV-I 826 W/m 16,1 km/h (3 Bft)
05.07.2010 11:10 22,0 C 60 % 1018,0 hPa 0,0 mm 6,4 km/h (2 Bft) W 270 10 min 6 UV-I 842 W/m 12,9 km/h (3 Bft)
05.07.2010 11:20 22,1 C 61 % 1018,0 hPa 0,0 mm 4,8 km/h (1 Bft) W 270 10 min 5 UV-I 485 W/m 16,1 km/h (3 Bft)
05.07.2010 11:30 21,7 C 61 % 1018,0 hPa 0,0 mm 6,4 km/h (2 Bft) W 270 0 min 4 UV-I 413 W/m 19,3 km/h (3 Bft)
05.07.2010 11:40 21,5 C 58 % 1018,0 hPa 0,0 mm 4,8 km/h (1 Bft) W-SW 247 10 min 4 UV-I 461 W/m 14,5 km/h (3 Bft)
05.07.2010 11:50 21,8 C 57 % 1018,0 hPa 0,0 mm 8,0 km/h (2 Bft) W 270 0 min 4 UV-I 432 W/m 19,3 km/h (3 Bft)
05.07.2010 12:00 21,7 C 58 % 1018,0 hPa 0,0 mm 4,8 km/h (1 Bft) W 270 10 min 6 UV-I 719 W/m 17,7 km/h (3 Bft)
05.07.2010 12:10 22,4 C 55 % 1019,0 hPa 0,0 mm 6,4 km/h (2 Bft) W 270 10 min 8 UV-I 631 W/m 17,7 km/h (3 Bft)
05.07.2010 12:20 22,2 C 55 % 1019,0 hPa 0,0 mm 4,8 km/h (1 Bft) W 270 0 min 5 UV-I 452 W/m 12,9 km/h (3 Bft)
05.07.2010 12:30 21,9 C 58 % 1019,0 hPa 0,0 mm 3,2 km/h (1 Bft) W-SW 247 0 min 4 UV-I 381 W/m 9,7 km/h (2 Bft)
05.07.2010 12:40 22,4 C 56 % 1019,0 hPa 0,0 mm 3,2 km/h (1 Bft) W 270 10 min 6 UV-I 615 W/m 11,3 km/h (2 Bft)
05.07.2010 12:50 22,6 C 55 % 1019,0 hPa 0,0 mm 4,8 km/h (1 Bft) W 270 10 min 6 UV-I 671 W/m 16,1 km/h (3 Bft)
05.07.2010 13:00 22,9 C 54 % 1019,0 hPa 0,0 mm 4,8 km/h (1 Bft) W 270 10 min 5 UV-I 534 W/m 14,5 km/h (3 Bft)
05.07.2010 13:10 22,9 C 55 % 1019,0 hPa 0,0 mm 6,4 km/h (2 Bft) W 270 0 min 5 UV-I 455 W/m 14,5 km/h (3 Bft)
05.07.2010 13:20 23,0 C 55 % 1019,0 hPa 0,0 mm 4,8 km/h (1 Bft) W-SW 247 0 min 5 UV-I 471 W/m 12,9 km/h (3 Bft)
05.07.2010 13:30 23,0 C 53 % 1019,0 hPa 0,0 mm 8,0 km/h (2 Bft) W 270 0 min 5 UV-I 448 W/m 17,7 km/h (3 Bft)
05.07.2010 13:40 22,7 C 53 % 1019,0 hPa 0,0 mm 4,8 km/h (1 Bft) W 270 0 min 3 UV-I 311 W/m 11,3 km/h (2 Bft)
05.07.2010 13:50 22,5 C 54 % 1019,0 hPa 0,0 mm 4,8 km/h (1 Bft) W-SW 247 0 min 3 UV-I 336 W/m 12,9 km/h (3 Bft)
05.07.2010 14:00 22,7 C 54 % 1019,0 hPa 0,0 mm 3,2 km/h (1 Bft) W 270 10 min 6 UV-I 626 W/m 8,0 km/h (2 Bft)
05.07.2010 14:10 23,2 C 54 % 1019,0 hPa 0,0 mm 4,8 km/h (1 Bft) W 270 10 min 5 UV-I 524 W/m 14,5 km/h (3 Bft)
05.07.2010 14:20 23,4 C 55 % 1019,0 hPa 0,0 mm 6,4 km/h (2 Bft) W 270 10 min 5 UV-I 606 W/m 12,9 km/h (3 Bft)
05.07.2010 14:30 23,5 C 54 % 1019,0 hPa 0,0 mm 4,8 km/h (1 Bft) W 270 10 min 5 UV-I 490 W/m 14,5 km/h (3 Bft)
05.07.2010 14:40 23,7 C 53 % 1019,0 hPa 0,0 mm 4,8 km/h (1 Bft) W 270 10 min 5 UV-I 577 W/m 14,5 km/h (3 Bft)
05.07.2010 14:50 23,9 C 55 % 1019,0 hPa 0,0 mm 6,4 km/h (2 Bft) W 270 10 min 7 UV-I 835 W/m 22,5 km/h (4 Bft)
05.07.2010 15:00 24,3 C 55 % 1019,0 hPa 0,0 mm 6,4 km/h (2 Bft) W 270 10 min 7 UV-I 756 W/m 16,1 km/h (3 Bft)
05.07.2010 15:10 24,2 C 55 % 1019,0 hPa 0,0 mm 6,4 km/h (2 Bft) W 270 10 min 7 UV-I 918 W/m 16,1 km/h (3 Bft)
05.07.2010 15:20 24,0 C 55 % 1019,0 hPa 0,0 mm 8,0 km/h (2 Bft) W 270 10 min 5 UV-I 515 W/m 16,1 km/h (3 Bft)
05.07.2010 15:30 23,6 C 56 % 1019,0 hPa 0,0 mm 6,4 km/h (2 Bft) W 270 0 min 4 UV-I 353 W/m 17,7 km/h (3 Bft)
05.07.2010 15:40 23,3 C 56 % 1019,0 hPa 0,0 mm 6,4 km/h (2 Bft) W 270 10 min 4 UV-I 473 W/m 16,1 km/h (3 Bft)
05.07.2010 15:50 23,3 C 58 % 1019,0 hPa 0,0 mm 6,4 km/h (2 Bft) W 270 10 min 4 UV-I 434 W/m 14,5 km/h (3 Bft)
05.07.2010 16:00 23,1 C 60 % 1019,0 hPa 0,0 mm 2,0 km/h (1 Bft) W-NW 303 0 min 3 UV-I 344 W/m 4,8 km/h (1 Bft)
05.07.2010 16:10 23,3 C 61 % 1019,0 hPa 0,0 mm 4,8 km/h (1 Bft) W-NW 292 10 min 4 UV-I 703 W/m 14,5 km/h (3 Bft)
05.07.2010 16:20 23,3 C 60 % 1019,0 hPa 0,0 mm 4,8 km/h (1 Bft) W 270 0 min 3 UV-I 313 W/m 12,9 km/h (3 Bft)
05.07.2010 16:30 23,1 C 61 % 1019,0 hPa 0,0 mm 4,8 km/h (1 Bft) W-NW 292 0 min 3 UV-I 367 W/m 12,9 km/h (3 Bft)
05.07.2010 16:40 23,7 C 59 % 1019,0 hPa 0,0 mm 4,8 km/h (1 Bft) W-NW 292 10 min 4 UV-I 796 W/m 14,5 km/h (3 Bft)
05.07.2010 16:50 23,8 C 58 % 1019,0 hPa 0,0 mm 6,4 km/h (2 Bft) W 270 10 min 4 UV-I 844 W/m 17,7 km/h (3 Bft)
05.07.2010 17:00 23,2 C 61 % 1019,0 hPa 0,0 mm 4,8 km/h (1 Bft) W 270 0 min 2 UV-I 250 W/m 16,1 km/h (3 Bft)
05.07.2010 17:10 23,1 C 60 % 1019,0 hPa 0,0 mm 6,4 km/h (2 Bft) W 270 0 min 2 UV-I 246 W/m 16,1 km/h (3 Bft)
05.07.2010 17:20 22,8 C 62 % 1019,0 hPa 0,0 mm 6,4 km/h (2 Bft) W-NW 292 0 min 2 UV-I 278 W/m 17,7 km/h (3 Bft)
05.07.2010 17:30 22,8 C 63 % 1019,0 hPa 0,0 mm 8,0 km/h (2 Bft) W 270 10 min 2 UV-I 357 W/m 20,9 km/h (4 Bft)
05.07.2010 17:40 22,6 C 63 % 1019,0 hPa 0,0 mm 6,4 km/h (2 Bft) W 270 10 min 2 UV-I 315 W/m 16,1 km/h (3 Bft)
05.07.2010 17:50 22,7 C 60 % 1019,0 hPa 0,0 mm 6,4 km/h (2 Bft) W-SW 247 10 min 2 UV-I 540 W/m 12,9 km/h (3 Bft)
05.07.2010 18:00 22,9 C 58 % 1019,0 hPa 0,0 mm 6,4 km/h (2 Bft) W 270 10 min 2 UV-I 322 W/m 16,1 km/h (3 Bft)
05.07.2010 18:10 22,6 C 61 % 1019,0 hPa 0,0 mm 4,8 km/h (1 Bft) W 270 0 min 1 UV-I 174 W/m 12,9 km/h (3 Bft)
05.07.2010 18:20 22,5 C 62 % 1019,0 hPa 0,0 mm 3,2 km/h (1 Bft) W 270 10 min 2 UV-I 415 W/m 12,9 km/h (3 Bft)
05.07.2010 18:30 22,9 C 57 % 1019,0 hPa 0,0 mm 6,4 km/h (2 Bft) W 270 10 min 2 UV-I 594 W/m 14,5 km/h (3 Bft)
05.07.2010 18:40 23,2 C 59 % 1019,0 hPa 0,0 mm 6,4 km/h (2 Bft) W 270 10 min 2 UV-I 446 W/m 16,1 km/h (3 Bft)
05.07.2010 18:50 22,9 C 59 % 1019,0 hPa 0,0 mm 6,4 km/h (2 Bft) W 270 10 min 1 UV-I 350 W/m 19,3 km/h (3 Bft)
05.07.2010 19:00 22,6 C 61 % 1019,0 hPa 0,0 mm 3,2 km/h (1 Bft) W 270 0 min 1 UV-I 202 W/m 11,3 km/h (2 Bft)
05.07.2010 19:10 22,6 C 60 % 1019,0 hPa 0,0 mm 1,6 km/h (1 Bft) NW 315 10 min 1 UV-I 246 W/m 11,3 km/h (2 Bft)
05.07.2010 19:20 22,5 C 59 % 1019,0 hPa 0,0 mm 4,8 km/h (1 Bft) W 270 10 min 1 UV-I 206 W/m 14,5 km/h (3 Bft)
05.07.2010 19:30 22,2 C 61 % 1019,0 hPa 0,0 mm 4,8 km/h (1 Bft) W 270 0 min 1 UV-I 142 W/m 14,5 km/h (3 Bft)
05.07.2010 19:40 21,9 C 63 % 1019,0 hPa 0,0 mm 3,2 km/h (1 Bft) W-SW 247 0 min 1 UV-I 90 W/m 16,1 km/h (3 Bft)
05.07.2010 19:50 21,8 C 63 % 1019,0 hPa 0,0 mm 3,2 km/h (1 Bft) W 270 0 min 0 UV-I 58 W/m 11,3 km/h (2 Bft)
05.07.2010 20:00 21,7 C 64 % 1019,0 hPa 0,0 mm 3,2 km/h (1 Bft) W-SW 247 0 min 0 UV-I 54 W/m 9,7 km/h (2 Bft)
05.07.2010 20:10 21,6 C 64 % 1019,0 hPa 0,0 mm 1,6 km/h (1 Bft) W 270 0 min 0 UV-I 67 W/m 4,8 km/h (1 Bft)
05.07.2010 20:20 21,6 C 65 % 1019,0 hPa 0,0 mm 0,0 km/h (0 Bft) W-NW 292 10 min 0 UV-I 148 W/m 4,8 km/h (1 Bft)
05.07.2010 20:30 21,8 C 64 % 1019,0 hPa 0,0 mm 3,2 km/h (1 Bft) W-NW 292 10 min 0 UV-I 160 W/m 9,7 km/h (2 Bft)
05.07.2010 20:40 21,8 C 65 % 1019,0 hPa 0,0 mm 1,6 km/h (1 Bft) W 270 10 min 0 UV-I 116 W/m 8,0 km/h (2 Bft)
05.07.2010 20:50 21,6 C 66 % 1019,0 hPa 0,0 mm 3,2 km/h (1 Bft) W 270 10 min 0 UV-I 62 W/m 17,7 km/h (3 Bft)
05.07.2010 21:00 21,4 C 68 % 1019,0 hPa 0,0 mm 3,2 km/h (1 Bft) W 270 0 min 0 UV-I 28 W/m 11,3 km/h (2 Bft)
05.07.2010 21:10 21,1 C 67 % 1019,0 hPa 0,0 mm 4,8 km/h (1 Bft) W 270 0 min 0 UV-I 19 W/m 12,9 km/h (3 Bft)
05.07.2010 21:20 20,8 C 67 % 1019,0 hPa 0,0 mm 3,2 km/h (1 Bft) W-NW 292 0 min 0 UV-I 14 W/m 14,5 km/h (3 Bft)
05.07.2010 21:30 20,5 C 68 % 1019,0 hPa 0,0 mm 4,8 km/h (1 Bft) W-NW 292 0 min 0 UV-I 9 W/m 19,3 km/h (3 Bft)
05.07.2010 21:40 20,2 C 70 % 1019,0 hPa 0,0 mm 4,8 km/h (1 Bft) W-NW 292 0 min 0 UV-I 0 W/m 11,3 km/h (2 Bft)
05.07.2010 21:50 19,8 C 72 % 1019,0 hPa 0,0 mm 1,6 km/h (1 Bft) W-NW 292 0 min 0 UV-I 0 W/m 11,3 km/h (2 Bft)
05.07.2010 22:00 19,6 C 74 % 1019,0 hPa 0,0 mm 1,6 km/h (1 Bft) W-NW 292 0 min 0 UV-I 0 W/m 6,4 km/h (2 Bft)
05.07.2010 22:10 19,3 C 75 % 1019,0 hPa 0,0 mm 1,6 km/h (1 Bft) W-NW 292 0 min 0 UV-I 0 W/m 6,4 km/h (2 Bft)
05.07.2010 22:20 19,2 C 76 % 1019,0 hPa 0,0 mm 3,2 km/h (1 Bft) W-NW 292 0 min 0 UV-I 0 W/m 14,5 km/h (3 Bft)
05.07.2010 22:30 19,1 C 76 % 1019,0 hPa 0,0 mm 4,8 km/h (1 Bft) N 360 0 min 0 UV-I 0 W/m 16,1 km/h (3 Bft)
05.07.2010 22:40 18,8 C 75 % 1019,0 hPa 0,0 mm 6,4 km/h (2 Bft) N-NO 22 0 min 0 UV-I 0 W/m 17,7 km/h (3 Bft)
05.07.2010 22:50 18,5 C 76 % 1019,0 hPa 0,0 mm 3,2 km/h (1 Bft) N 360 0 min 0 UV-I 0 W/m 12,9 km/h (3 Bft)
05.07.2010 23:00 18,4 C 75 % 1019,0 hPa 0,0 mm 3,2 km/h (1 Bft) N-NO 22 0 min 0 UV-I 0 W/m 12,9 km/h (3 Bft)
05.07.2010 23:10 18,3 C 74 % 1019,0 hPa 0,0 mm 4,8 km/h (1 Bft) N-NO 22 0 min 0 UV-I 0 W/m 11,3 km/h (2 Bft)
05.07.2010 23:20 18,1 C 74 % 1019,0 hPa 0,0 mm 3,2 km/h (1 Bft) N-NO 22 0 min 0 UV-I 0 W/m 14,5 km/h (3 Bft)
05.07.2010 23:30 18,1 C 75 % 1019,0 hPa 0,0 mm 4,8 km/h (1 Bft) N-NO 22 0 min 0 UV-I 0 W/m 12,9 km/h (3 Bft)
05.07.2010 23:40 18,0 C 75 % 1019,0 hPa 0,0 mm 4,8 km/h (1 Bft) N 360 0 min 0 UV-I 0 W/m 12,9 km/h (3 Bft)
05.07.2010 23:50 17,9 C 77 % 1019,0 hPa 0,0 mm 4,8 km/h (1 Bft) N-NO 22 0 min 0 UV-I 0 W/m 12,9 km/h (3 Bft)
_ Min-Zeit 06:20 13:30 00:00 - 00:00 - - - - - 00:00
Minimum _ 16,5 C 53 % 1018,0 hPa - 0,0 km/h (0 Bft) - - - - - 0,0 km/h (0 Bft)
_ Max-Zeit 15:00 01:20 12:10 00:00 11:50 - - 07:00 12:10 15:10 14:50
Maximum _ 24,4 C 88 % 1019,0 hPa 0,0 mm 8,0 km/h
W (2 Bft)
- - 10 min 8 UV-I 918 W/m 22,5 km/h
W-SW (4 Bft)
Durchschnitt _ 20,3 C 71 % 1018,5 hPa #0,0 mm 2,9 km/h (1 Bft) W - #10:10 h 3 UV-I 379 W/m 9,4 km/h (2 Bft)